Regional Weather Roundup
Issued by NWS Glasgow, MT

Home | Current Version | Previous Version | Text Only | Print | Product List | Glossary On
Versions: 1 2 3 4 5 6 7 8 9 10 11 12 13 14 15 16 17 18 19 20 21 22 23 24 25 26 27
000
ASUS45 KGGW 242115
RWRGGW
HOURLY WEATHER ROUNDUP FOR NORTHEAST MONTANA
NATIONAL WEATHER SERVICE GLASGOW MONTANA
300 PM MDT FRI OCT 24 2014

NOTE: "FAIR" INDICATES FEW OR NO CLOUDS BELOW 12,000 FEET WITH NO
SIGNIFICANT WEATHER AND/OR OBSTRUCTIONS TO VISISBILITY.

NORTHEAST MONTANA


CITY           SKY/WX    TMP DP  RH WIND       PRES   REMARKS
GLASGOW        MOSUNNY   59  28  30 NW18      29.97S
PLENTYWOOD       N/A     57  28  33 W20         N/A
WOLF POINT     PTSUNNY   61  30  31 W17G24    29.98R
JORDAN           N/A     59  29  31 NW15      30.02S
WINNETT          N/A     55  37  50 SE3         N/A
SIDNEY         PTSUNNY   63  27  25 W18G24    29.98S
GLENDIVE       PTSUNNY   61  28  29 NW15G21   30.02S
MALTA            N/A     61  32  33 W14G22      N/A
SCOBEY           N/A     58  24  27 W26       29.93R

FORT PECK REPORTS


CITY           SKY/WX    TMP DP  RH WIND       PRES   REMARKS
FORT PECK        N/A     60  30  32 W23         N/A
THE PINES        N/A     59  24  26 W9          N/A

SOUTHEAST MONTANA


CITY           SKY/WX    TMP DP  RH WIND       PRES   REMARKS
BILLINGS       CLOUDY    57  39  51 NE6       30.05F
MILES CITY     CLOUDY    60  30  32 NW13      30.04R
BAKER          CLOUDY    59  31  34 W12       30.03S
LIVINGSTON     CLOUDY    56  40  55 W7        30.07R

CENTRAL MONTANA


CITY           SKY/WX    TMP DP  RH WIND       PRES   REMARKS
HAVRE          CLOUDY    57  28  33 W21G26    30.00S
LEWISTOWN      CLOUDY    56  35  45 W3        30.05S
GREAT FALLS    PTSUNNY   56  34  43 SW15      30.01F
CUT BANK       PTSUNNY   54  29  38 W25G36    30.00R
HELENA         CLOUDY    57  36  45 W9        30.07F
BUTTE          CLOUDY    46  38  73 CALM      30.13F
BOZEMAN        CLOUDY    50  40  68 W6        30.12R

WESTERN MONTANA


CITY           SKY/WX    TMP DP  RH WIND       PRES   REMARKS
MISSOULA       CLOUDY    52  42  69 S8        30.11F
KALISPELL      NOT AVBL

NORTH DAKOTA


CITY           SKY/WX    TMP DP  RH WIND       PRES   REMARKS
WILLISTON      MOSUNNY   61  28  28 W23       29.93R
DICKINSON      CLOUDY    59  31  34 W16G24    29.96R
MINOT          SUNNY     65  27  23 W23G37    29.85R
BISMARCK       MOSUNNY   68  35  29 W20G29    29.91R

SOUTHERN SASKATCHEWAN


CITY           SKY/WX    TMP DP  RH WIND       PRES   REMARKS
REGINA         MOSUNNY   55  32  41 W25G36    29.85R
MOOSE JAW      MOSUNNY   55  32  41 W24G30    29.87R
ESTEVAN        MOSUNNY   61  32  33 W21G33    29.86R
SWIFT CURRENT  SUNNY     54  28  37 W20G26    29.89R




USA.gov is the U.S. government's official web portal to all federal, state and local government web resources and services.